Regional Weather Roundup
Issued by NWS

Home | Current Version | Previous Version | Graphics & Text | Print | Product List | Glossary On
Versions: 1 2 3 4 5 6 7 8 9 10 11 12 13 14 15 16 17 18 19 20 21 22 23 24 25 26 27 28 29 30 31 32 33 34 35 36 37 38 39 40 41 42 43 44 45 46 47 48 49 50
000
ASUS43 KDMX 230101
RWRIA

WEATHER ROUNDUP FOR IOWA
NATIONAL WEATHER SERVICE DES MOINES IA
800 PM CDT FRI SEP 22 2017

NOTE: "FAIR" INDICATES FEW OR NO CLOUDS BELOW 12,000 FEET WITH NO
SIGNIFICANT WEATHER AND/OR OBSTRUCTIONS TO VISIBILITY.

* - THESE STATIONS ARE NOT NWS STATIONS...THUS NOT UNDER NWS
QUALITY CONTROL.  THEY ALSO DO NOT REPORT WEATHER SUCH
AS PRECIPITATION OR FOG.

IAZ001>003-012>014-020>022-031>034-043>046-230200-
   NORTHWEST IOWA

CITY           SKY/WX    TMP DP  RH WIND       PRES   REMARKS
CARROLL *      CLEAR     82  68  61 S10       29.88R HX  85
CHEROKEE *     CLEAR     82  67  61 S10       29.83R HX  84
DENISON *      CLEAR     82  68  61 S12       29.87R HX  85
LE MARS *      PTCLDY    84  70  61 SE17G26   29.78R HX  88
ORANGE CITY *  PTCLDY    86  70  58 S16G23    29.79S HX  90
SHELDON *      PTCLDY    82  68  61 S15G24    29.78S HX  85
SIOUX CITY     PTCLDY    85  70  60 SE15G23   29.78R HX  89
SPENCER        CLOUDY    84  66  54 S16       29.83R HX  86
STORM LAKE *   CLEAR     82  66  57 S15G23    29.86R HX  85
$$

IAZ055>058-069>071-079>083-090>094-230200-
   SOUTHWEST IOWA

CITY           SKY/WX    TMP DP  RH WIND       PRES   REMARKS
ATLANTIC *     CLEAR     82  68  61 S8        29.88S HX  85
AUDUBON *      CLEAR     81  70  69 S7        29.90R HX  84
CLARINDA *     CLEAR     81  70  69 S7        29.92R HX  84
COUNCIL BLFS * CLEAR     82  70  65 S17G23    29.86R HX  86
CRESTON *      CLEAR     81  68  65 S9        29.94R HX  83
HARLAN  *      CLEAR     82  68  61 S14G20    29.90R HX  85
LAMONI         CLEAR     81  67  62 S7        29.94R HX  83
RED OAK *      CLEAR     82  70  65 S8        29.89R HX  86
SHENANDOAH *   CLEAR     82  68  61 S12       29.89R HX  85
$$

IAZ047>049-059>061-072>074-084-230200-
   CENTRAL IOWA

CITY           SKY/WX    TMP DP  RH WIND       PRES   REMARKS
AMES           CLEAR     80  70  71 SE7       29.91R HX  83
ANKENY *       CLEAR     81  68  65 S6        29.92R HX  83
BOONE *        CLEAR     81  68  65 S8        29.91R HX  83
CHARITON *     CLEAR     79  68  69 SE8       29.94R HX  81
DES MOINES     PTCLDY    83  68  60 SE8       29.90S HX  86
GRINNELL*      CLEAR     78  66  67 S5        29.96R HX  80
KNOXVILLE *    CLEAR     81  66  61 SE6       29.92S HX  83
MARSHALLTOWN   CLEAR     81  69  67 SE7       29.92S HX  84
NEWTON *       CLEAR     79  68  69 S8        29.93S HX  81
PELLA *        CLEAR     81  65  58 SE7       29.94S HX  83
PERRY *          N/A     80  65  61 SE6       29.90R HX  82
$$

IAZ004>006-015-016-023>025-035-036-230200-
   NORTH CENTRAL IOWA

CITY           SKY/WX    TMP DP  RH WIND       PRES   REMARKS
ALGONA *       CLEAR     82  68  61 S13       29.87R HX  85
CLARION *      PTCLDY    82  70  65 S13G18    29.90R HX  86
ESTHERVILLE    CLEAR     80  67  64 S10       29.84R HX  82
FORT DODGE *   CLEAR     84  69  60 S12G18    29.89R HX  88
MASON CITY     CLEAR     81  67  62 S15       29.91R HX  83
FOREST CITY *    N/A     81  68  65 S13G18    29.89R HX  83
WEBSTER CITY * PTCLDY    82  68  61 S12       29.88R HX  85
IOWA FALLS *     N/A     82  69  65 SE9       29.93S HX  85
$$

IAZ007>011-017>019-026>030-037>042-050>054-066-230200-
   NORTHEAST IOWA

CITY           SKY/WX    TMP DP  RH WIND       PRES   REMARKS
CEDAR RAPIDS   CLEAR     79  67  66 SE6       29.96R HX  81
CHARLES CITY * CLEAR     82  68  61 S12       29.93R HX  85
CLINTON *      CLEAR    N/A N/A N/A SE8       30.00R
DECORAH *      CLEAR     81  66  61 S8        29.94S HX  83
DUBUQUE        CLEAR     78  68  71 S10       30.00S HX  80
MONTICELLO *   CLEAR     79  68  69 SE5       29.97S HX  81
OELWEIN *      CLEAR     79  68  69 S8        29.96S HX  81
WATERLOO       CLEAR     82  65  56 S9        29.93R HX  84
$$

IAZ064-065-067-068-078-230200-
   EAST CENTRAL IOWA

CITY           SKY/WX    TMP DP  RH WIND       PRES   REMARKS
DAVENPORT      CLEAR     79  66  64 SE7       30.01R HX  81
IOWA CITY      CLEAR     81  68  64 S3        29.98R HX  84
MUSCATINE *    CLEAR     82  66  57 SE5       29.97R HX  85
QUAD CITIES    CLEAR     79  67  66 S7        29.98R HX  81
$$

IAZ062-063-075>077-085>089-095>099-230200-
   SOUTHEAST IOWA

CITY           SKY/WX    TMP DP  RH WIND       PRES   REMARKS
BURLINGTON     CLEAR     79  66  64 SE5       29.98R HX  81
FAIRFIELD *    CLEAR     81  64  57 S6        29.96S HX  82
FORT MADISON * CLEAR     82  64  54 SE3       29.99R HX  84
KEOKUK *       CLEAR     82  63  51 SE3       29.97R HX  83
OSKALOOSA *      N/A     76  66  71 SE5       29.96R
OTTUMWA        CLEAR     79  67  66 S7        29.95S HX  81
WASHINGTON *   CLEAR     77  68  73 SE7       29.98R
$$

ABBREVIATIONS USED IN REMARKS
   TC - TEMPERATURES IN CELSIUS
  WCI - WIND CHILL INDEX
   HX - HEAT INDEX
  VSB - VISIBILITY
$$





USA.gov is the U.S. government's official web portal to all federal, state and local government web resources and services.